AC0ID-13 Weather Reports


Display with metric or nautical units.
time (UTC)temp
F
wind
direction
speed
MPH
gust
MPH
rain 1hr
in
rain 24hr
in
rain mn
in
humidity
%
barometer
mb
20260503045503 55 225 0.0 3.0 0.00 0.00 0.00 46 1010.1
20260503045006 55 242 0.0 3.0 0.00 0.00 0.00 46 1010.1
20260503044503 55 177 0.0 2.0 0.00 0.00 0.00 47 1010.1
20260503044003 55 246 0.0 1.0 0.00 0.00 0.00 46 1010.3
20260503043503 55 247 0.0 1.0 0.00 0.00 0.00 46 1010.4
20260503043009 55 247 0.0 1.0 0.00 0.00 0.00 45 1010.4
20260503042503 55 242 0.0 1.0 0.00 0.00 0.00 45 1010.4
20260503042003 56 242 0.0 1.0 0.00 0.00 0.00 45 1010.6
20260503041511 56 242 0.0 2.0 0.00 0.00 0.00 45 1010.7
20260503041005 56 242 0.0 2.0 0.00 0.00 0.00 45 1010.7
20260503040502 56 223 0.0 2.0 0.00 0.00 0.00 44 1010.9
20260503040012 56 225 0.0 3.0 0.00 0.00 0.00 44 1010.9
20260503035508 56 242 0.0 3.0 0.00 0.00 0.00 44 1011.0
20260503035003 56 232 0.0 2.0 0.00 0.00 0.00 44 1011.0
20260503034526 56 218 0.0 2.0 0.00 0.00 0.00 44 1011.0
20260503034010 57 230 0.0 2.0 0.00 0.00 0.00 44 1011.1
20260503033504 57 213 0.0 1.0 0.00 0.00 0.00 43 1011.2
20260503033003 57 213 0.0 2.0 0.00 0.00 0.00 43 1011.2
20260503032503 57 213 0.0 2.0 0.00 0.00 0.00 42 1011.3
20260503032003 57 209 0.0 2.0 0.00 0.00 0.00 42 1011.4
20260503031508 57 228 0.0 2.0 0.00 0.00 0.00 42 1011.5
20260503031003 57 196 0.0 2.0 0.00 0.00 0.00 42 1011.5
20260503030504 58 184 0.0 1.0 0.00 0.00 0.00 42 1011.6
20260503030013 58 184 0.0 3.0 0.00 0.00 0.00 41 1011.6
20260503025503 58 182 0.0 3.0 0.00 0.00 0.00 41 1011.6
20260503025003 58 213 0.0 4.0 0.00 0.00 0.00 41 1011.7
20260503024518 58 247 0.0 4.0 0.00 0.00 0.00 40 1011.7
20260503024011 58 238 1.0 4.0 0.00 0.00 0.00 40 1011.7
20260503023504 58 223 1.0 4.0 0.00 0.00 0.00 40 1011.7
20260503023011 59 242 0.0 4.0 0.00 0.00 0.00 40 1011.7
20260503022507 59 242 0.0 4.0 0.00 0.00 0.00 40 1011.8
20260503022005 59 247 1.0 4.0 0.00 0.00 0.00 39 1011.8
20260503021504 59 218 2.0 4.0 0.00 0.00 0.00 39 1011.8
20260503021004 59 192 1.0 4.0 0.00 0.00 0.00 39 1011.8
20260503020505 59 241 0.0 6.0 0.00 0.00 0.00 38 1011.8
20260503020005 59 218 1.0 6.0 0.00 0.00 0.00 38 1011.8
20260503015504 60 219 1.0 4.0 0.00 0.00 0.00 38 1011.7
20260503015003 60 198 1.0 3.0 0.00 0.00 0.00 38 1011.7
20260503014518 60 244 1.0 4.0 0.00 0.00 0.00 37 1011.7
20260503014004 60 261 1.0 4.0 0.00 0.00 0.00 37 1011.7
20260503013507 60 165 1.0 4.0 0.00 0.00 0.00 37 1011.6
20260503013020 60 237 1.0 3.0 0.00 0.00 0.00 36 1011.7
20260503012502 60 238 0.0 3.0 0.00 0.00 0.00 37 1011.6
20260503012009 60 232 1.0 4.0 0.00 0.00 0.00 36 1011.7
20260503011520 61 250 1.0 4.0 0.00 0.00 0.00 36 1011.7
20260503011010 61 231 1.0 4.0 0.00 0.00 0.00 35 1011.8
20260503010506 61 213 1.0 3.0 0.00 0.00 0.00 35 1011.8
20260503010008 61 205 1.0 3.0 0.00 0.00 0.00 35 1011.9
20260503005511 61 222 1.0 3.0 0.00 0.00 0.00 35 1011.8
20260503005004 61 234 0.0 4.0 0.00 0.00 0.00 34 1011.9
20260503004508 61 238 0.0 4.0 0.00 0.00 0.00 34 1011.8
20260503004003 61 225 0.0 4.0 0.00 0.00 0.00 34 1011.9
20260503003504 62 247 0.0 5.0 0.00 0.00 0.00 34 1011.9
20260503003009 62 221 0.0 5.0 0.00 0.00 0.00 33 1012.0
20260503002505 62 222 1.0 5.0 0.00 0.00 0.00 33 1012.0
20260503002007 62 227 2.0 5.0 0.00 0.00 0.00 33 1012.1
20260503001520 62 221 1.0 4.0 0.00 0.00 0.00 33 1012.1
20260503001006 62 201 0.0 4.0 0.00 0.00 0.00 33 1012.1
20260503000507 62 243 1.0 4.0 0.00 0.00 0.00 34 1012.2
20260503000031 62 202 0.0 5.0 0.00 0.00 0.00 35 1012.2
20260502235504 62 224 1.0 5.0 0.00 0.00 0.00 34 1012.3
20260502235006 62 171 2.0 8.0 0.00 0.00 0.00 32 1012.3
20260502234523 63 261 3.0 10.0 0.00 0.00 0.00 32 1012.3
20260502234004 63 205 2.0 10.0 0.00 0.00 0.00 32 1012.3
20260502233505 63 262 1.0 5.0 0.00 0.00 0.00 33 1012.4
20260502233013 63 234 0.0 5.0 0.00 0.00 0.00 33 1012.4
20260502232504 63 229 1.0 5.0 0.00 0.00 0.00 32 1012.5
20260502232007 63 279 1.0 2.0 0.00 0.00 0.00 33 1012.5
20260502231521 63 200 0.0 3.0 0.00 0.00 0.00 32 1012.6
20260502231008 63 290 0.0 4.0 0.00 0.00 0.00 32 1012.7
20260502230506 64 219 1.0 7.0 0.00 0.00 0.00 32 1012.7
20260502230012 64 236 2.0 7.0 0.00 0.00 0.00 31 1012.8
20260502225509 64 180 1.0 6.0 0.00 0.00 0.00 31 1012.9
20260502225005 64 213 0.0 7.0 0.00 0.00 0.00 32 1012.9
20260502224512 65 208 1.0 7.0 0.00 0.00 0.00 31 1012.9
20260502224007 65 337 1.0 7.0 0.00 0.00 0.00 31 1013.0
20260502223511 65 279 1.0 7.0 0.00 0.00 0.00 30 1013.1
20260502223027 65 223 2.0 6.0 0.00 0.00 0.00 31 1013.1
20260502222503 65 175 1.0 8.0 0.00 0.00 0.00 30 1013.1
20260502222009 65 113 1.0 9.0 0.00 0.00 0.00 30 1013.1
20260502221511 65 42 1.0 9.0 0.00 0.00 0.00 31 1013.1
20260502221003 66 200 1.0 7.0 0.00 0.00 0.00 31 1013.2
20260502220503 65 118 2.0 10.0 0.00 0.00 0.00 30 1013.2
20260502220006 65 260 3.0 10.0 0.00 0.00 0.00 30 1013.2
20260502215503 65 261 3.0 8.0 0.00 0.00 0.00 29 1013.2
20260502215003 65 267 1.0 9.0 0.00 0.00 0.00 31 1013.4
20260502214502 65 259 2.0 9.0 0.00 0.00 0.00 30 1013.5
20260502214002 66 206 1.0 8.0 0.00 0.00 0.00 30 1013.6
20260502213504 66 57 1.0 8.0 0.00 0.00 0.00 31 1013.6
20260502213006 66 233 1.0 6.0 0.00 0.00 0.00 30 1013.6
20260502212503 66 324 2.0 9.0 0.00 0.00 0.00 28 1013.8
20260502212004 67 327 3.0 9.0 0.00 0.00 0.00 30 1013.9
20260502211523 66 352 1.0 6.0 0.00 0.00 0.00 30 1013.9
20260502211003 66 181 1.0 5.0 0.00 0.00 0.00 31 1013.9
20260502210504 66 211 1.0 7.0 0.00 0.00 0.00 31 1014.0
20260502210009 66 284 1.0 9.0 0.00 0.00 0.00 28 1014.2
20260502205505 67 200 3.0 9.0 0.00 0.00 0.00 28 1014.2
20260502205003 66 186 1.0 9.0 0.00 0.00 0.00 27 1014.3
20260502204502 67 34 1.0 9.0 0.00 0.00 0.00 30 1014.4
20260502204004 66 196 2.0 6.0 0.00 0.00 0.00 28 1014.5
20260502203504 65 82 1.0 6.0 0.00 0.00 0.00 29 1014.6
20260502203006 65 18 2.0 6.0 0.00 0.00 0.00 30 1014.7
20260502202506 64 331 1.0 6.0 0.00 0.00 0.00 33 1014.8
20260502202003 65 41 1.0 9.0 0.00 0.00 0.00 30 1014.8
20260502201503 65 131 3.0 9.0 0.00 0.00 0.00 28 1015.0
20260502201003 65 270 3.0 9.0 0.00 0.00 0.00 28 1015.0
20260502200503 65 221 1.0 5.0 0.00 0.00 0.00 28 1015.1
20260502200014 65 335 1.0 5.0 0.00 0.00 0.00 31 1015.2
20260502195503 64 173 1.0 5.0 0.00 0.00 0.00 27 1015.3
20260502195003 65 222 1.0 5.0 0.00 0.00 0.00 28 1015.4
20260502194517 65 41 0.0 9.0 0.00 0.00 0.00 33 1015.3
20260502194005 65 294 3.0 9.0 0.00 0.00 0.00 29 1015.4
20260502193504 64 269 2.0 9.0 0.00 0.00 0.00 35 1015.5
20260502193003 64 237 3.0 9.0 0.00 0.00 0.00 28 1015.6
20260502192504 64 272 3.0 8.0 0.00 0.00 0.00 28 1015.7
20260502192003 64 244 1.0 7.0 0.00 0.00 0.00 30 1015.8
20260502191514 63 150 1.0 7.0 0.00 0.00 0.00 30 1015.8
20260502191006 63 299 1.0 8.0 0.00 0.00 0.00 33 1015.9
20260502190503 62 222 1.0 10.0 0.00 0.00 0.00 30 1016.1
20260502190014 62 262 1.0 10.0 0.00 0.00 0.00 31 1016.2
20260502185506 62 164 3.0 7.0 0.00 0.00 0.00 29 1016.2
20260502185008 61 227 2.0 5.0 0.00 0.00 0.00 29 1016.3
20260502184505 62 220 1.0 7.0 0.00 0.00 0.00 28 1016.4
20260502184004 63 88 2.0 7.0 0.00 0.00 0.00 31 1016.5
20260502183509 62 216 1.0 9.0 0.00 0.00 0.00 31 1016.6
20260502183022 62 125 1.0 10.0 0.00 0.00 0.00 31 1016.8
20260502182502 62 228 1.0 10.0 0.00 0.00 0.00 31 1016.8
20260502182008 61 157 4.0 10.0 0.00 0.00 0.00 29 1016.9
20260502181506 61 270 2.0 10.0 0.00 0.00 0.00 34 1016.9
20260502181005 61 213 4.0 10.0 0.00 0.00 0.00 31 1016.8
20260502180503 61 162 2.0 9.0 0.00 0.00 0.00 32 1017.0
20260502170510 60 209 1.0 4.0 0.00 0.00 0.00 37 1018.0
20260502164006 59 248 1.0 8.0 0.00 0.00 0.00 34 1018.2
20260502163504 59 109 2.0 8.0 0.00 0.00 0.00 34 1018.2
20260502163018 59 205 1.0 8.0 0.00 0.00 0.00 34 1018.2
20260502162506 59 47 2.0 8.0 0.00 0.00 0.00 35 1018.3
20260502162003 59 163 2.0 5.0 0.00 0.00 0.00 34 1018.3
20260502161516 59 263 1.0 6.0 0.00 0.00 0.00 36 1018.3
20260502161008 59 304 1.0 10.0 0.00 0.00 0.00 35 1018.3
20260502160502 59 40 1.0 10.0 0.00 0.00 0.00 37 1018.4
20260502152006 58 243 1.0 12.0 0.00 0.00 0.00 37 1018.6
20260502151518 57 229 4.0 12.0 0.00 0.00 0.00 36 1018.6
20260502151005 57 270 2.0 5.0 0.00 0.00 0.00 41 1018.7
20260502150508 56 101 1.0 5.0 0.00 0.00 0.00 39 1018.7
20260502130507 33 190 1.0 5.0 0.00 0.00 0.00 84 1018.9
20260502123503 29 17 0.0 2.0 0.00 0.00 0.00 81 1019.1
20260502123004 29 360 0.0 1.0 0.00 0.00 0.00 80 1019.1
20260502122503 29 360 0.0 0.0 0.00 0.00 0.00 80 1019.2
20260502122003 29 360 0.0 0.0 0.00 0.00 0.00 79 1019.2
20260502121508 29 360 0.0 0.0 0.00 0.00 0.00 79 1019.1
20260502121006 29 360 0.0 0.0 0.00 0.00 0.00 78 1019.1
20260502120501 29 360 0.0 0.0 0.00 0.00 0.00 78 1019.1
20260502115503 28 360 0.0 0.0 0.00 0.00 0.00 77 1019.1
20260502115006 28 360 0.0 0.0 0.00 0.00 0.00 77 1019.1
20260502114507 28 360 0.0 0.0 0.00 0.00 0.00 77 1019.0
20260502114003 28 360 0.0 0.0 0.00 0.00 0.00 77 1019.0
20260502113503 28 360 0.0 0.0 0.00 0.00 0.00 77 1019.0
20260502113007 28 360 0.0 0.0 0.00 0.00 0.00 76 1018.9
20260502112503 28 360 0.0 0.0 0.00 0.00 0.00 76 1018.9
20260502112003 28 360 0.0 0.0 0.00 0.00 0.00 76 1018.9
20260502111504 29 360 0.0 0.0 0.00 0.00 0.00 76 1018.9
20260502111003 29 360 0.0 0.0 0.00 0.00 0.00 76 1018.9
20260502110503 29 360 0.0 0.0 0.00 0.00 0.00 76 1018.9
20260502110009 29 360 0.0 0.0 0.00 0.00 0.00 76 1018.9
20260502105504 29 360 0.0 0.0 0.00 0.00 0.00 76 1018.9
20260502105004 29 360 0.0 0.0 0.00 0.00 0.00 76 1018.9
20260502104513 29 360 0.0 0.0 0.00 0.00 0.00 75 1018.9
20260502104007 29 360 0.0 0.0 0.00 0.00 0.00 75 1018.9
20260502103503 29 360 0.0 0.0 0.00 0.00 0.00 75 1018.9
20260502103011 29 360 0.0 0.0 0.00 0.00 0.00 75 1018.8
20260502102507 29 360 0.0 0.0 0.00 0.00 0.00 75 1018.8
20260502102007 29 360 0.0 0.0 0.00 0.00 0.00 75 1018.9
20260502101510 29 360 0.0 0.0 0.00 0.00 0.00 75 1018.8
20260502101003 29 360 0.0 0.0 0.00 0.00 0.00 75 1018.9
20260502100503 29 360 0.0 0.0 0.00 0.00 0.00 75 1018.8
20260502091515 30 360 0.0 0.0 0.00 0.00 0.00 74 1018.9
20260502091007 30 360 0.0 0.0 0.00 0.00 0.00 74 1018.9
20260502090504 30 360 0.0 0.0 0.00 0.00 0.00 73 1018.8
20260502071511 32 360 0.0 0.0 0.00 0.00 0.00 70 1019.1
20260502071008 32 360 0.0 0.0 0.00 0.00 0.00 69 1019.1
20260502070506 32 360 0.0 0.0 0.00 0.00 0.00 69 1019.1
20260502070022 32 360 0.0 0.0 0.00 0.00 0.00 69 1019.1
20260502065507 32 360 0.0 0.0 0.00 0.00 0.00 69 1019.1
20260502065012 32 360 0.0 0.0 0.00 0.00 0.00 68 1019.2
20260502064529 33 360 0.0 0.0 0.00 0.00 0.00 68 1019.2
20260502064003 33 360 0.0 0.0 0.00 0.00 0.00 68 1019.2
20260502063504 33 360 0.0 0.0 0.00 0.00 0.00 68 1019.2
20260502063010 33 360 0.0 0.0 0.00 0.00 0.00 67 1019.2
20260502062504 33 360 0.0 0.0 0.00 0.00 0.00 67 1019.2
20260502062006 33 360 0.0 0.0 0.00 0.00 0.00 67 1019.1
20260502061509 33 360 0.0 0.0 0.00 0.00 0.00 66 1019.3
20260502061004 34 360 0.0 0.0 0.00 0.00 0.00 66 1019.3
20260502060503 34 360 0.0 0.0 0.00 0.00 0.00 66 1019.1
20260502060014 34 360 0.0 0.0 0.00 0.00 0.00 65 1019.1
20260502055506 34 360 0.0 0.0 0.00 0.00 0.00 65 1019.0
20260502055003 34 360 0.0 0.0 0.00 0.00 0.00 65 1019.0
20260502054514 34 360 0.0 0.0 0.00 0.00 0.00 64 1019.0
20260502054011 35 360 0.0 0.0 0.00 0.00 0.00 64 1019.0
20260502053508 35 360 0.0 0.0 0.00 0.00 0.00 64 1019.0
20260502053010 35 360 0.0 0.0 0.00 0.00 0.00 64 1019.0
20260502052507 35 360 0.0 0.0 0.00 0.00 0.00 63 1019.0
20260502052007 35 360 0.0 0.0 0.00 0.00 0.00 63 1019.0
20260502051507 35 360 0.0 0.0 0.00 0.00 0.00 62 1019.0
20260502051002 36 360 0.0 0.0 0.00 0.00 0.00 62 1019.0
20260502050503 36 360 0.0 0.0 0.00 0.00 0.00 61 1018.9
20260502050011 36 360 0.0 0.0 0.00 0.00 0.00 61 1019.0